Weather History for Armstrong, ON

Change the Weather History Date:

Wednesday, March 12, 2014

  Actual Average Record
Temperature  
Mean Temperature -12 °F -  
Max Temperature 12 °F - - ()
Min Temperature -36 °F - - ()
Degree Days  
Heating Degree Days 77    
Moisture  
Dew Point -24 °F    
Average Humidity 53    
Maximum Humidity 75    
Minimum Humidity 16    
Precipitation  
Precipitation 0.01 in - - ()
Sea Level Pressure  
Sea Level Pressure 30.20 in    
Wind  
Wind Speed 2 mph ()    
Max Wind Speed 8 mph    
Max Gust Speed -    
T = Trace of Precipitation, MM = Missing Value Source: Averaged Metar Reports

Daily Weather History Graph

Daily Weather History Graph

Search for Another Location

Airport:

Trip Planner

Search our weather history database for the weather conditions in past years. The results will help you decide how hot, cold, wet, or windy it might be!

Date:

Astronomy

Mar. 12, 2014 Rise Set
Actual Time 8:15 AM EDT 7:55 PM EDT
Civil Twilight 7:43 AM EDT 8:28 PM EDT
Nautical Twilight 7:05 AM EDT 9:06 PM EDT
Astronomical Twilight 6:27 AM EDT 9:44 PM EDT
Moon 4:09 PM EDT (3/12) 6:05 AM EDT (3/12)
Length of Visible Light 12h 44m
Length of Day
11h 40m
Waxing Gibbous, 85% of the Moon is Illuminated
Mar 12
Waxing Gibbous
Mar 16
Full
Mar 23
Last Quarter
Mar 30
New
Apr 7
First Quarter

Hourly Weather History & Observations

Time (EDT) Temp. Windchill Dew Point Humidity Pressure Visibility Wind Dir Wind Speed Gust Speed Precip Events Conditions
12:00 AM -9.4 °F - -16.1 °F 73% 30.22 in - North 2.3 mph - N/A   Unknown
1:00 AM -17.3 °F - -23.1 °F 75% 30.25 in - NNW 2.3 mph - N/A   Unknown
2:00 AM -22 °F - -29 °F 55% 30.26 in - NW 2.3 mph - -  
2:00 AM -22.4 °F - -28.8 °F 72% 30.26 in - NW 2.3 mph - N/A   Unknown
3:00 AM -26.7 °F - -33.9 °F 69% 30.26 in - Calm Calm - N/A   Unknown
4:00 AM -28.1 °F - -34.4 °F 72% 30.26 in - West 1.2 mph - N/A   Unknown
5:00 AM -32 °F - -39 °F 52% 30.25 in - NW 1.2 mph - -  
5:00 AM -31.7 °F - -38.9 °F 68% 30.25 in - West 1.2 mph - 0.00 in   Unknown
6:00 AM -32.6 °F - -40.2 °F 67% 30.27 in - Calm Calm - N/A   Unknown
7:00 AM -35.1 °F - -42.9 °F 66% 30.29 in - Calm Calm - N/A   Unknown
8:00 AM -36 °F - -44 °F 46% 30.29 in - Calm Calm - -  
8:00 AM -36.2 °F - -44.0 °F 65% 30.29 in - Calm Calm - 0.00 in   Unknown
9:00 AM -35.7 °F - -43.2 °F 66% 30.31 in - Calm Calm - N/A   Unknown
10:00 AM -20.0 °F - -28.5 °F 65% 30.31 in - Calm Calm - N/A   Unknown
11:00 AM -3 °F - -18 °F 31% 30.28 in - Calm Calm - -  
11:00 AM - - - N/A% 30.28 in - Calm Calm - N/A   Unknown
12:00 PM - - - N/A% 30.27 in - SW 1.2 mph - N/A   Unknown
1:00 PM - - - N/A% 30.25 in - SSW 1.2 mph - N/A   Unknown
2:00 PM 7 °F - -17 °F 16% 30.22 in - East 1.2 mph - -  
2:00 PM 6.8 °F - -17.3 °F 32% 30.22 in - ESE 2.3 mph - N/A   Unknown
3:00 PM 8.2 °F - -15.9 °F 33% 30.19 in - SSW 2.3 mph - N/A   Unknown
4:00 PM 11.3 °F 3.3 °F -13.5 °F 32% 30.16 in - WSW 4.6 mph - N/A   Unknown
5:00 PM 11 °F - -11 °F 20% 30.14 in - SSE 5.8 mph - -  
5:00 PM 10.6 °F 1.0 °F -11.2 °F 37% 30.14 in - SSE 5.8 mph - N/A   Unknown
6:00 PM 9.0 °F -2.2 °F -10.8 °F 40% 30.12 in - SE 6.9 mph - N/A   Unknown
7:00 PM 4.6 °F -8.5 °F -12.1 °F 46% 30.10 in - SSE 8.1 mph - N/A   Unknown
8:00 PM -1 °F - -13 °F 39% 30.10 in - SSE 6.9 mph - -  
8:00 PM -0.9 °F -14.1 °F -13.4 °F 56% 30.10 in - SSE 6.9 mph - N/A   Unknown
9:00 PM -4.2 °F -16.5 °F -14.3 °F 62% 30.09 in - SSE 5.8 mph - N/A   Unknown
10:00 PM -5.6 °F -18.2 °F -14.6 °F 65% 30.05 in - SSE 5.8 mph - N/A   Unknown
11:00 PM -4 °F - -14 °F 47% 29.99 in - SE 5.8 mph - -  
11:00 PM -4.2 °F -16.5 °F -13.7 °F 64% 29.99 in - SSE 5.8 mph - N/A   Unknown